Wind_Speed
67 70 68 68 67 66 66 67 63 62 59 62 59 53 52 58 52 51 51 50 49 48 46 44 41 39 37 35 34 33 33 28 25 25 24 24 24 23 22 19 19 17 17 18 17
70 69 69 70 69 68 67 65 65 63 62 63 60 59 57 54 55 53 52 52 51 50 49 48 45 44 42 39 39 38 36 30 31 28 29 27 27 26 25 24 23 22 21 20 19
69 71 71 68 72 71 68 67 65 65 64 62 62 64 61 60 61 57 55 53 52 51 51 50 50 48 47 45 43 42 38 37 32 34 32 31 31 28 27 25 26 27 24 21 21
73 72 70 71 68 71 69 68 66 66 66 66 64 62 62 61 60 63 62 56 54 52 51 51 52 51 50 48 47 45 43 39 38 37 37 35 35 30 30 29 27 28 25 23 24
77 74 74 72 73 71 70 69 68 67 66 66 67 65 63 59 57 61 61 61 57 55 53 52 52 53 52 52 49 49 46 44 41 40 39 38 37 36 31 33 30 30 30 28 27
81 77 75 75 72 72 72 69 71 69 67 67 67 67 66 62 58 58 62 62 61 60 54 55 53 53 53 53 51 52 50 47 45 44 43 41 40 37 32 34 31 33 34 32 32
81 81 78 76 76 73 71 71 67 72 68 67 70 68 67 63 60 60 57 62 63 62 61 53 53 56 55 54 53 53 52 51 49 48 47 45 44 38 35 36 36 34 35 35 35
83 83 80 79 77 77 73 69 70 68 72 66 70 70 68 63 62 61 59 57 59 65 57 64 57 50 51 54 54 54 54 53 54 51 51 49 46 43 40 41 38 38 38 37 37
68 76 78 84 79 78 77 70 69 70 68 71 66 70 73 63 63 63 60 59 56 56 57 57 61 67 62 54 50 52 55 55 54 51 54 53 51 48 44 45 43 43 42 40 38
40 68 73 80 82 81 77 71 68 70 69 70 71 72 72 66 64 62 62 60 58 58 56 56 57 56 60 60 62 60 52 45 47 50 54 54 55 51 51 49 48 46 44 43 41
35 34 58 68 73 78 79 72 69 70 71 71 69 71 77 69 63 63 62 61 59 58 59 59 58 58 55 56 57 55 55 53 51 49 49 51 53 49 51 52 50 50 49 47 45
35 36 49 56 61 62 72 73 69 73 68 70 70 68 71 69 65 62 61 62 61 58 58 59 59 57 56 55 54 56 55 52 62 58 58 52 52 45 49 49 48 50 51 49 48
39 36 38 48 63 54 50 67 66 63 66 66 66 70 66 65 66 62 61 60 59 59 58 58 57 56 59 55 54 55 56 58 56 55 56 61 68 57 49 53 48 45 46 47 45
43 36 37 39 50 62 66 57 59 61 64 68 70 71 70 65 67 64 62 62 60 58 60 60 60 59 59 58 56 57 56 55 56 60 57 60 62 61 61 58 57 57 51 45 45
31 39 36 37 36 53 54 53 45 50 54 53 66 69 66 66 65 66 64 61 60 57 57 59 60 58 58 57 58 58 57 55 56 55 58 59 61 58 56 56 55 57 59 60 59
24 37 36 34 32 46 50 44 45 50 63 61 61 68 67 64 63 67 66 64 63 61 61 60 61 60 58 59 60 60 59 57 58 59 61 57 60 58 56 55 52 52 53 52 53
23 35 35 34 29 36 50 40 50 62 62 55 55 56 68 64 66 67 66 67 65 64 64 63 62 61 59 59 59 59 61 59 60 61 61 59 59 55 52 52 49 48 47 46 46
19 34 34 28 31 35 45 64 47 56 55 64 54 59 51 59 66 63 56 63 63 59 62 61 61 59 59 59 56 56 56 56 56 59 58 58 57 55 54 50 48 45 45 42 43
15 32 36 32 30 35 41 62 57 40 52 51 60 56 59 59 57 61 64 62 62 60 59 59 63 64 60 58 56 57 61 57 60 59 61 61 56 55 55 53 52 51 50 45 43
15 28 35 29 32 34 41 46 68 47 41 47 52 54 55 53 60 64 64 67 65 62 58 58 60 62 61 62 60 60 57 57 60 60 62 62 61 58 57 55 53 52 50 47 44
16 25 38 30 29 36 43 41 63 26 57 53 59 52 58 60 51 53 58 63 62 58 57 58 58 61 61 61 60 60 61 60 59 58 58 62 61 62 58 55 55 53 52 50 45
16 22 31 37 32 39 36 34 46 52 37 49 50 64 62 58 51 56 53 54 60 60 60 58 59 60 60 60 58 58 57 59 60 60 60 59 63 62 61 60 58 55 55 52 51
18 20 28 41 45 36 40 41 39 42 65 40 45 49 44 59 52 44 51 42 43 57 59 61 68 66 63 65 65 66 62 60 60 57 62 63 61 60 62 61 60 59 54 44 43
22 21 28 41 45 46 35 33 40 43 47 56 42 42 45 52 54 60 59 51 50 54 51 52 59 66 67 64 63 65 63 62 63 64 62 64 62 62 62 63 61 59 59 57 54
28 27 28 35 47 47 51 35 43 43 44 48 63 52 44 38 48 48 46 55 58 55 58 62 64 60 63 65 64 67 70 69 70 71 68 67 68 64 61 62 63 64 64 64 56
31 32 33 37 37 43 53 55 40 44 44 42 44 42 47 58 41 43 42 42 49 48 51 50 52 59 64 63 62 66 66 71 69 67 70 72 74 64 63 63 66 66 66 66 65
24 28 31 39 44 45 46 52 47 44 47 44 41 46 43 61 40 34 39 44 40 44 43 44 45 48 52 50 57 70 69 71 70 63 61 69 68 64 67 68 68 70 71 74 73
Wind_Direction
234 232 231 234 235 235 235 237 238 227 230 232 235 233 232 226 229 230 230 228 229 227 227 225 226 228 229 229 229 229 230 228 226 230 235 232 232 232 235 235 237 240 241 239 237
246 236 231 232 233 234 235 235 235 238 233 227 232 238 229 234 227 232 232 231 228 228 228 228 227 228 229 230 232 234 234 233 230 231 235 233 236 235 237 240 243 243 243 241 235
241 247 237 232 231 231 233 235 233 234 237 237 231 231 234 231 229 227 234 234 231 229 229 230 230 228 230 231 232 234 236 238 235 237 238 238 242 240 241 242 246 244 241 238 238
235 239 243 237 231 231 230 233 235 233 233 236 236 235 237 235 229 228 228 233 236 232 230 230 231 232 232 232 233 236 236 237 238 240 240 241 240 242 240 240 247 250 245 242 241
236 234 238 240 239 232 229 229 233 235 233 233 235 236 235 237 232 230 233 228 233 234 234 231 230 233 233 233 233 236 236 238 239 241 243 243 242 240 240 244 242 251 254 251 246
233 235 234 237 239 240 234 230 229 233 235 234 235 234 235 235 234 233 229 233 233 231 235 235 234 233 234 234 235 234 237 237 239 241 243 244 245 242 242 244 243 246 251 254 254
234 232 234 234 235 237 239 237 234 230 233 235 236 235 233 234 232 233 231 229 232 234 231 234 236 235 234 234 234 236 238 238 238 240 242 245 245 245 250 248 243 244 247 251 254
231 234 231 234 233 233 235 237 237 235 231 234 236 235 235 233 234 233 233 232 234 230 234 234 229 236 236 237 237 238 238 239 240 241 243 244 243 248 249 251 251 249 247 248 251
231 230 234 230 232 233 231 234 237 237 236 231 235 235 235 233 232 234 234 233 233 234 236 238 237 234 232 237 238 240 241 242 243 243 245 245 245 246 248 251 250 251 251 249 249
237 232 230 232 229 232 232 232 233 235 236 235 231 233 232 230 234 233 234 234 233 233 232 236 239 239 237 240 241 243 247 245 249 245 246 247 248 248 246 246 250 252 254 253 250
234 230 232 232 239 236 232 232 232 231 234 237 236 235 232 233 231 234 233 235 235 234 235 235 237 239 241 243 241 243 246 249 250 251 251 250 251 252 252 250 250 250 251 253 253
234 227 208 211 222 227 232 232 232 234 233 237 238 235 236 235 232 234 234 233 234 235 235 236 237 239 241 240 241 241 240 243 245 249 253 253 255 252 254 255 254 255 252 249 249
235 230 218 219 216 227 236 235 230 234 234 232 235 239 236 236 234 232 234 234 233 234 235 236 236 237 239 240 240 244 245 243 246 245 251 254 251 256 255 257 258 255 256 258 257
235 231 228 224 222 218 227 239 234 227 232 232 233 234 236 235 237 231 231 234 234 234 233 234 235 235 237 239 239 240 243 245 246 247 249 251 249 251 253 258 258 259 261 259 257
245 229 221 220 227 215 217 225 233 225 223 232 230 233 233 236 239 237 231 230 232 233 233 235 235 235 236 240 241 243 241 243 246 246 248 251 251 250 249 250 254 257 260 261 260
269 225 214 217 219 211 213 220 203 215 215 226 232 230 229 230 234 236 236 234 231 231 232 233 233 234 234 235 239 242 243 244 244 245 245 246 250 246 253 250 252 258 262 263 261
283 220 213 217 211 203 191 198 217 218 211 223 226 230 231 230 230 236 237 237 235 232 231 232 234 235 235 236 238 240 243 246 246 246 246 248 247 249 253 253 254 254 256 258 261
289 210 214 206 214 211 209 206 223 227 220 223 226 229 228 227 227 231 228 238 234 234 234 235 238 238 238 239 241 245 247 250 253 253 252 250 248 247 247 251 255 254 256 260 260
285 207 208 204 212 218 216 210 208 228 231 224 226 228 227 228 229 228 229 231 239 237 238 237 238 237 237 237 239 240 241 245 246 248 250 248 244 246 249 249 249 252 252 249 251
269 215 205 201 211 216 220 220 211 224 217 220 222 230 232 229 231 230 228 232 233 234 235 238 239 239 237 238 239 241 240 242 243 245 246 244 244 244 245 249 252 252 253 252 249
256 232 219 206 206 216 224 224 206 198 220 224 223 230 228 230 235 235 235 236 235 232 232 234 235 237 236 238 240 242 242 242 246 243 247 246 243 245 245 248 251 254 254 255 248
257 234 222 212 213 226 228 217 219 228 220 221 221 225 234 238 235 237 238 235 237 235 233 235 232 238 240 238 240 241 240 241 241 243 246 247 242 242 245 248 247 251 255 254 253
261 236 219 212 206 211 225 224 222 224 225 219 216 226 233 229 229 229 231 227 231 231 231 230 234 236 239 240 240 241 241 245 245 245 247 245 241 242 245 246 249 253 256 255 257
249 234 230 221 215 219 226 230 226 220 223 219 208 215 226 230 232 235 236 231 235 231 230 232 234 239 240 242 248 246 245 244 247 246 246 249 242 245 244 248 251 254 257 259 258
251 244 233 230 223 220 219 226 225 220 219 220 224 222 227 234 231 234 235 239 238 236 237 239 242 242 242 243 242 248 245 242 244 247 247 244 245 235 242 247 250 251 249 252 256
249 247 235 230 225 228 226 220 223 222 214 217 225 235 243 235 233 241 241 243 240 234 232 238 245 244 243 244 242 245 248 251 252 248 250 249 246 238 242 245 249 254 258 257 255
250 239 242 230 232 236 231 225 224 227 220 219 221 233 239 227 229 231 234 233 236 237 241 241 252 249 247 248 248 247 246 251 254 252 253 253 251 244 243 249 250 252 256 257 257
Height
5673 5681 5687 5692 5699 5706 5713 5721 5727 5734 5741 5748 5753 5759 5765 5770 5776 5780 5786 5793 5797 5801 5806 5810 5813 5817 5820 5824 5827 5829 5833 5838 5841 5844 5845 5847 5848 5850 5851 5853 5855 5856 5857 5859 5860
5656 5664 5671 5678 5685 5692 5700 5708 5715 5722 5728 5735 5742 5747 5753 5759 5765 5772 5777 5782 5789 5794 5798 5803 5806 5810 5814 5818 5820 5822 5827 5834 5835 5839 5839 5842 5844 5847 5849 5850 5852 5852 5854 5856 5857
5643 5646 5653 5661 5670 5677 5687 5695 5702 5709 5716 5722 5729 5736 5742 5748 5756 5764 5768 5773 5779 5785 5790 5795 5799 5802 5806 5810 5814 5816 5822 5825 5831 5832 5836 5837 5840 5843 5846 5848 5848 5848 5851 5853 5854
5627 5633 5638 5645 5654 5664 5673 5682 5689 5696 5704 5711 5717 5723 5729 5735 5745 5752 5758 5763 5769 5776 5782 5786 5791 5794 5799 5803 5807 5811 5815 5819 5822 5826 5829 5831 5835 5840 5840 5842 5845 5845 5847 5848 5850
5610 5617 5625 5632 5639 5649 5659 5667 5677 5682 5691 5698 5706 5712 5718 5725 5734 5741 5748 5754 5759 5765 5771 5777 5782 5785 5790 5795 5800 5803 5808 5812 5816 5819 5822 5825 5828 5831 5837 5837 5840 5842 5842 5844 5845
5593 5602 5610 5618 5626 5635 5644 5654 5661 5669 5676 5684 5692 5700 5706 5714 5722 5728 5737 5744 5749 5754 5760 5767 5773 5778 5782 5787 5793 5794 5800 5806 5809 5812 5815 5819 5821 5825 5833 5832 5836 5837 5838 5839 5841
5574 5584 5594 5602 5612 5621 5630 5639 5648 5655 5663 5671 5676 5685 5694 5704 5710 5717 5725 5734 5739 5744 5750 5756 5762 5768 5773 5778 5783 5787 5792 5796 5801 5804 5806 5811 5813 5820 5826 5826 5828 5831 5833 5834 5836
5558 5567 5577 5586 5596 5605 5615 5626 5633 5641 5649 5657 5662 5671 5681 5690 5698 5706 5714 5722 5728 5736 5740 5745 5749 5755 5762 5769 5774 5778 5783 5787 5791 5796 5799 5803 5808 5811 5818 5818 5822 5824 5826 5828 5830
5542 5552 5560 5570 5580 5589 5601 5611 5619 5626 5634 5641 5648 5658 5665 5682 5689 5694 5703 5710 5717 5724 5730 5735 5741 5745 5752 5757 5763 5767 5772 5777 5782 5789 5790 5796 5799 5804 5809 5811 5814 5816 5818 5821 5825
5527 5536 5547 5554 5565 5575 5586 5597 5605 5612 5620 5624 5632 5642 5657 5671 5676 5684 5691 5699 5707 5713 5719 5726 5731 5737 5743 5747 5754 5757 5762 5768 5773 5780 5781 5785 5789 5796 5798 5802 5805 5809 5812 5814 5817
5520 5524 5533 5546 5552 5561 5571 5584 5592 5599 5606 5617 5628 5636 5643 5656 5667 5672 5680 5687 5695 5703 5710 5715 5722 5729 5735 5741 5744 5748 5754 5758 5761 5768 5769 5775 5779 5787 5789 5792 5798 5801 5803 5805 5809
5511 5516 5525 5533 5541 5549 5556 5566 5581 5588 5600 5606 5613 5623 5631 5643 5656 5662 5669 5678 5685 5694 5699 5707 5715 5722 5725 5729 5733 5738 5743 5747 5750 5756 5759 5762 5767 5776 5778 5783 5787 5790 5794 5797 5799
5501 5509 5515 5523 5530 5537 5546 5559 5572 5581 5586 5594 5603 5610 5622 5632 5640 5652 5658 5665 5674 5681 5689 5697 5705 5711 5716 5721 5725 5729 5734 5739 5742 5746 5750 5752 5757 5763 5771 5770 5776 5780 5782 5784 5788
5492 5499 5506 5512 5516 5528 5537 5549 5561 5572 5572 5579 5587 5597 5608 5618 5626 5639 5647 5655 5663 5672 5678 5684 5691 5699 5705 5711 5714 5717 5723 5728 5732 5734 5739 5741 5744 5753 5759 5762 5766 5770 5772 5776 5778
5483 5490 5498 5504 5510 5519 5538 5542 5552 5560 5561 5566 5575 5586 5600 5608 5622 5625 5634 5643 5651 5659 5668 5676 5681 5689 5695 5703 5706 5709 5712 5718 5721 5724 5727 5733 5734 5743 5749 5756 5759 5760 5762 5765 5769
5476 5483 5491 5497 5505 5514 5524 5536 5546 5546 5544 5553 5562 5574 5587 5599 5606 5613 5623 5631 5639 5647 5655 5661 5670 5675 5684 5688 5692 5697 5701 5706 5708 5711 5714 5724 5725 5736 5738 5745 5749 5749 5751 5754 5756
5470 5476 5486 5492 5502 5508 5518 5526 5527 5523 5538 5541 5553 5565 5581 5591 5596 5599 5609 5618 5627 5636 5643 5652 5657 5664 5671 5677 5680 5688 5691 5693 5697 5700 5707 5711 5716 5729 5730 5733 5738 5741 5743 5746 5747
5466 5470 5479 5489 5495 5501 5506 5512 5512 5520 5529 5536 5549 5560 5566 5577 5581 5593 5599 5605 5616 5629 5632 5641 5649 5656 5663 5668 5674 5679 5683 5688 5690 5692 5699 5700 5709 5717 5719 5723 5726 5730 5733 5736 5739
5464 5467 5475 5482 5489 5494 5497 5496 5503 5512 5525 5534 5544 5547 5555 5563 5571 5583 5590 5598 5607 5618 5625 5633 5635 5642 5649 5654 5660 5665 5667 5676 5675 5681 5682 5691 5703 5705 5708 5712 5715 5717 5721 5726 5729
5461 5464 5471 5477 5484 5488 5488 5491 5499 5508 5513 5526 5533 5540 5547 5556 5560 5568 5578 5588 5596 5606 5615 5617 5623 5630 5636 5640 5647 5652 5657 5659 5663 5667 5669 5681 5687 5693 5696 5700 5704 5707 5711 5714 5719
5459 5460 5465 5471 5477 5479 5481 5488 5495 5503 5510 5517 5525 5531 5539 5548 5554 5561 5569 5583 5588 5597 5604 5609 5613 5617 5621 5629 5635 5640 5643 5649 5650 5656 5660 5670 5677 5679 5688 5691 5693 5696 5700 5702 5706
5456 5458 5460 5465 5472 5474 5479 5489 5493 5497 5504 5509 5517 5523 5531 5541 5545 5551 5559 5570 5579 5588 5592 5601 5602 5604 5612 5615 5621 5625 5631 5632 5634 5646 5648 5654 5663 5673 5676 5678 5682 5683 5684 5688 5692
5450 5451 5453 5456 5461 5465 5472 5481 5487 5489 5496 5504 5509 5518 5527 5530 5535 5542 5551 5562 5565 5574 5577 5586 5583 5592 5595 5599 5606 5610 5620 5620 5629 5633 5630 5641 5659 5660 5661 5665 5670 5672 5673 5675 5680
5445 5446 5448 5451 5458 5462 5465 5471 5478 5484 5488 5495 5502 5508 5514 5519 5526 5533 5539 5550 5553 5563 5566 5569 5571 5573 5580 5594 5601 5598 5608 5613 5614 5613 5624 5623 5644 5645 5652 5655 5659 5661 5662 5663 5667
5436 5437 5442 5445 5451 5456 5459 5464 5468 5474 5480 5486 5491 5499 5505 5512 5518 5523 5530 5539 5542 5551 5554 5556 5557 5566 5572 5580 5585 5582 5586 5592 5593 5598 5601 5614 5618 5636 5638 5641 5644 5642 5644 5650 5655
5427 5430 5434 5437 5440 5444 5447 5454 5461 5468 5473 5481 5489 5495 5501 5504 5513 5521 5525 5527 5530 5539 5542 5545 5547 5556 5557 5566 5569 5570 5572 5574 5579 5586 5589 5597 5600 5626 5631 5631 5628 5632 5633 5634 5637
5420 5421 5423 5428 5431 5433 5439 5449 5458 5460 5467 5474 5481 5482 5484 5494 5503 5505 5510 5515 5518 5523 5531 5536 5542 5542 5543 5555 5556 5546 5558 5564 5566 5572 5579 5578 5596 5613 5611 5613 5617 5618 5619 5616 5618